Preview of NWS' New Version of Forecast
This preview is not operational and should not be used for support decisions.

Regional Weather Roundup (RWR)

Issued by National Weather Service (NWS)

                            
000
ASUS46 KSEW 252210
RWRWA 

WASHINGTON REGIONAL WEATHER ROUNDUP
NATIONAL WEATHER SERVICE SEATTLE WA
300 PM PDT TUE JUN 25 2019

NOTE:"FAIR" INDICATES FEW OR NO CLOUDS BELOW 12,000 FEET WITH NO 
SIGNIFICANT WEATHER AND/OR OBSTRUCTIONS TO VISIBILITY.

WAZ507-509-555>559-252300-
SEATTLE, TACOMA, EVERETT, AND VICINITY
  
CITY           SKY/WX    TMP DP  RH WIND       PRES   REMARKS
EVERETT        MOSUNNY   70  43  37 W7        29.87F                  
BOEING FIELD   MOSUNNY   74  40  29 VRB3      29.84F                  
RENTON         MOSUNNY   74  48  39 N8        29.84F                  
SEATAC AIRPORT PTSUNNY   73  42  32 SW8       29.86F                  
JBLM-MCCHORD   PTSUNNY   71  51  49 NW6       29.86S                  
PUYALLUP       PTSUNNY   72  45  37 CALM      29.86S                  
BREMERTON      MOSUNNY   72  46  39 CALM      29.85F                  
JBLM-FT LEWIS  NOT AVBL                                               
TACOMA NARROWS MOSUNNY   71  43  36 VRB5      29.85F                  
$$
 
WAZ001-503-506-510-514-515-252300-
NORTH INTERIOR
  
CITY           SKY/WX    TMP DP  RH WIND       PRES   REMARKS
BELLINGHAM     MOSUNNY   71  47  42 VRB5      29.84F                  
FRIDAY HARBOR  MOSUNNY   69  49  48 SW8       29.87S                  
EASTSOUND      MOSUNNY   64  48  55 VRB5      29.85F                  
PORT ANGELES   CLOUDY    68  44  42 N7        29.88S                  
EDIZ HOOK      CLOUDY    62  48  58 CALM      29.87F                  
PORT TOWNSEND  FAIR      70  45  40 VRB5      29.84F                  
NAS WHIDBEY    PTSUNNY   69  49  48 W12       29.89F                  
ARLINGTON      MOSUNNY   72  49  44 NW7       29.85F                  
BURLINGTON     SUNNY     75  50  41 W9G15     29.84F                  
$$
 
WAZ020-022-039-040-504-511-512-252300-
SOUTHWEST INTERIOR
  
CITY           SKY/WX    TMP DP  RH WIND       PRES   REMARKS
SHELTON        PTSUNNY   71  46  40 S18       29.83S                  
OLYMPIA        CLOUDY    66  46  48 SW13G22   29.87R                  
CHEHALIS       FAIR      64  55  72 CALM      29.88F                  
KELSO          CLOUDY    64  57  78 CALM      29.88F                  
VANCOUVER      PTSUNNY   71  50  47 NW7       29.86F                  
SCAPPOOSE, OR  PTSUNNY   71  53  52 S7        29.86S HAZE             
PORTLAND, OR   MOSUNNY   72  50  45 N6        29.86F                  
$$
 
WAZ021-516-517-252300-
WASHINGTON COAST
  
CITY           SKY/WX    TMP DP  RH WIND       PRES   REMARKS
FORKS          MOSUNNY   64  48  56 SW8       29.90S                  
HOQUIAM        PTSUNNY   60  52  74 W14       29.90S                  
ASTORIA, OR    CLOUDY    62  54  74 SW13      29.91R                  
$$
 
WAZ019-023-024-040-567>569-252300-
CASCADE MOUNTAINS AND COLUMBIA GORGE
  
CITY           SKY/WX    TMP DP  RH WIND       PRES   REMARKS
STAMPEDE PASS  CLOUDY    61  41  47 VRB6      29.88F                  
TROUTDALE, OR  MOSUNNY   73  50  44 NW8       29.85F                  
HOOD RIVER, OR PTCLDY    72  43  35 NW13G18   29.81F                  
THE DALLES, OR PTSUNNY   74  47  38 NW8       29.78F                  
$$

WAZ026-027-041>044-520-521-252300-
EAST SLOPES
  
CITY           SKY/WX    TMP DP  RH WIND       PRES   REMARKS
OMAK           PTSUNNY   77  38  24 S13       29.78F                  
WENATCHEE      PTSUNNY   73  39  29 VRB7      29.78F                  
ELLENSBURG     PTSUNNY   79  29  16 E8        29.78F                  
YAKIMA         MOSUNNY   77  35  21 VRB6      29.77F                  
SUNNYSIDE ARPT PTCLDY    76  41  28 N3        29.77                   
YAKIMA TC      FAIR      77  29  17 SW9       29.76F                  
$$

WAZ028-034-035-252300-
COLUMBIA BASIN
  
CITY           SKY/WX    TMP DP  RH WIND       PRES   REMARKS
EPHRATA        MOSUNNY   75  32  20 S7        29.79F                  
MOSES LAKE     SUNNY     79  38  22 S12       29.80F                  
PASCO          MOSUNNY   83  34  17 VRB7      29.77F                  
RICHLAND ARPT  PTCLDY    82  37  20 SE6       29.76                   
HERMISTON, OR  MOSUNNY   81  36  19 NW7       29.76F                  
$$

WAZ036>038-252300-
NORTHEAST WASHINGTON
  
CITY           SKY/WX    TMP DP  RH WIND       PRES   REMARKS
SPOKANE GEIGER MOSUNNY   73  36  25 S9        29.83F                  
SPOKANE FELTS  MOSUNNY   75  36  24 VRB3      29.83F                  
FAIRCHILD AFB  MOSUNNY   72  35  26 SW8       29.84F                  
COEURDALENE,ID MOSUNNY   72  36  26 CALM      29.85F                  
DEER PARK      MOSUNNY   72  35  25 S7        29.84F                  
$$

WAZ029>033-252300-
SOUTHEAST WASHINGTON
  
CITY           SKY/WX    TMP DP  RH WIND       PRES   REMARKS
PULLMAN        SUNNY     72  44  36 SE8       29.86F                  
LEWISTON, ID   SUNNY     76  45  33 N6        29.80F                  
WALLA WALLA    MOSUNNY   78  35  21 S8        29.79F                  
PENDLETON, OR  MOSUNNY   75  36  24 NW8       29.79F                  
$$